QPF
0.00 0.00 0.00 0.00 0.04 0.00 0.03 0.03 0.06 0.02 0.01 0.00 0.01 0.02 0.01 0.01 0.02 0.05 0.00 0.00 0.00 0.00 0.00 0.00 0.00 0.00 0.00 0.00 0.00 0.00 0.00 0.00 0.00 0.00 0.01 0.00 0.00 0.01 0.02 0.01 0.00 0.00 0.00
0.00 0.00 0.00 0.04 0.07 0.07 0.14 0.09 0.07 0.04 0.03 0.01 0.00 0.00 0.00 0.00 0.00 0.01 0.00 0.00 0.00 0.00 0.00 0.00 0.00 0.00 0.00 0.00 0.00 0.00 0.00 0.00 0.00 0.00 0.01 0.01 0.00 0.00 0.01 0.01 0.00 0.00 0.00
0.02 0.00 0.00 0.00 0.00 0.01 0.06 0.17 0.10 0.09 0.01 0.01 0.00 0.00 0.00 0.00 0.01 0.01 0.00 0.00 0.01 0.00 0.00 0.00 0.00 0.00 0.00 0.00 0.00 0.00 0.00 0.00 0.00 0.00 0.00 0.00 0.00 0.00 0.01 0.00 0.00 0.00 0.00
0.04 0.03 0.01 0.00 0.00 0.00 0.01 0.04 0.02 0.04 0.00 0.02 0.02 0.00 0.00 0.00 0.00 0.00 0.01 0.00 0.00 0.00 0.00 0.00 0.00 0.00 0.00 0.00 0.00 0.00 0.00 0.00 0.00 0.00 0.00 0.00 0.01 0.00 0.01 0.01 0.00 0.00 0.00
0.02 0.02 0.07 0.02 0.00 0.02 0.03 0.05 0.09 0.06 0.05 0.14 0.11 0.08 0.09 0.00 0.00 0.00 0.02 0.03 0.04 0.00 0.00 0.00 0.00 0.00 0.00 0.00 0.00 0.00 0.00 0.00 0.00 0.00 0.00 0.00 0.00 0.00 0.00 0.00 0.00 0.00 0.00
0.08 0.09 0.08 0.06 0.07 0.04 0.04 0.03 0.03 0.05 0.11 0.11 0.08 0.36 0.21 0.00 0.01 0.00 0.00 0.02 0.07 0.10 0.02 0.04 0.04 0.01 0.00 0.00 0.00 0.00 0.00 0.00 0.00 0.00 0.00 0.00 0.00 0.00 0.00 0.00 0.00 0.00 0.00
0.00 0.01 0.03 0.02 0.02 0.06 0.12 0.11 0.08 0.11 0.08 0.04 0.01 0.07 0.01 0.10 0.16 0.10 0.03 0.03 0.13 0.12 0.10 0.09 0.10 0.05 0.00 0.00 0.00 0.00 0.00 0.00 0.00 0.00 0.00 0.00 0.00 0.00 0.00 0.00 0.00 0.00 0.00
0.01 0.00 0.00 0.01 0.02 0.07 0.17 0.21 0.29 0.36 0.39 0.35 0.20 0.09 0.10 0.24 0.22 0.13 0.04 0.12 0.12 0.17 0.05 0.03 0.02 0.00 0.00 0.00 0.00 0.00 0.00 0.00 0.00 0.00 0.00 0.00 0.00 0.00 0.00 0.00 0.00 0.00 0.00
0.10 0.02 0.02 0.03 0.04 0.05 0.01 0.01 0.04 0.10 0.12 0.15 0.19 0.12 0.05 0.08 0.14 0.17 0.08 0.13 0.28 0.26 0.10 0.03 0.00 0.00 0.00 0.00 0.00 0.00 0.00 0.00 0.00 0.00 0.00 0.00 0.00 0.00 0.00 0.00 0.00 0.00 0.00
0.14 0.05 0.03 0.07 0.08 0.03 0.03 0.06 0.06 0.05 0.07 0.10 0.09 0.06 0.03 0.02 0.02 0.09 0.16 0.17 0.12 0.09 0.07 0.03 0.01 0.00 0.00 0.00 0.00 0.00 0.00 0.00 0.00 0.00 0.00 0.00 0.00 0.00 0.00 0.00 0.00 0.00 0.00
0.01 0.00 0.01 0.01 0.02 0.02 0.01 0.01 0.02 0.01 0.01 0.01 0.01 0.02 0.02 0.03 0.02 0.05 0.08 0.08 0.06 0.02 0.01 0.00 0.00 0.00 0.00 0.00 0.00 0.00 0.00 0.00 0.00 0.00 0.00 0.00 0.00 0.00 0.00 0.00 0.00 0.00 0.00
0.01 0.00 0.00 0.00 0.00 0.00 0.00 0.00 0.00 0.00 0.00 0.00 0.00 0.00 0.00 0.00 0.00 0.00 0.01 0.02 0.01 0.01 0.01 0.00 0.00 0.00 0.00 0.00 0.00 0.00 0.00 0.00 0.00 0.00 0.00 0.00 0.00 0.00 0.00 0.00 0.00 0.00 0.00
0.00 0.00 0.00 0.00 0.00 0.00 0.00 0.00 0.00 0.00 0.00 0.00 0.00 0.00 0.00 0.00 0.00 0.00 0.00 0.00 0.00 0.00 0.00 0.00 0.00 0.00 0.00 0.00 0.00 0.00 0.00 0.00 0.00 0.00 0.00 0.00 0.00 0.00 0.00 0.00 0.00 0.00 0.00
0.00 0.00 0.00 0.00 0.00 0.00 0.00 0.00 0.00 0.00 0.00 0.00 0.00 0.00 0.00 0.00 0.00 0.00 0.00 0.00 0.00 0.00 0.00 0.00 0.00 0.00 0.00 0.00 0.00 0.00 0.00 0.00 0.00 0.00 0.00 0.00 0.00 0.00 0.00 0.00 0.00 0.00 0.00
0.00 0.00 0.00 0.00 0.00 0.00 0.00 0.00 0.00 0.00 0.00 0.00 0.00 0.00 0.00 0.00 0.00 0.00 0.00 0.00 0.00 0.00 0.00 0.00 0.00 0.00 0.00 0.00 0.00 0.00 0.00 0.00 0.00 0.00 0.00 0.00 0.00 0.00 0.00 0.00 0.00 0.00 0.00
0.00 0.00 0.00 0.00 0.00 0.00 0.00 0.00 0.00 0.00 0.00 0.00 0.00 0.00 0.00 0.00 0.00 0.00 0.00 0.00 0.00 0.00 0.00 0.00 0.00 0.00 0.00 0.00 0.00 0.00 0.00 0.00 0.00 0.00 0.00 0.00 0.00 0.00 0.00 0.00 0.00 0.00 0.00
0.00 0.00 0.00 0.00 0.00 0.00 0.00 0.00 0.00 0.00 0.00 0.00 0.00 0.00 0.00 0.00 0.00 0.00 0.00 0.00 0.00 0.00 0.00 0.00 0.00 0.00 0.00 0.00 0.00 0.00 0.00 0.00 0.00 0.00 0.00 0.00 0.00 0.00 0.00 0.00 0.00 0.00 0.00
0.00 0.00 0.00 0.00 0.00 0.00 0.00 0.00 0.00 0.00 0.00 0.00 0.00 0.00 0.00 0.00 0.00 0.00 0.00 0.00 0.00 0.00 0.00 0.00 0.00 0.00 0.00 0.00 0.00 0.00 0.00 0.00 0.00 0.00 0.00 0.00 0.00 0.00 0.00 0.00 0.00 0.00 0.00
0.00 0.00 0.00 0.00 0.00 0.00 0.00 0.00 0.00 0.00 0.00 0.00 0.00 0.00 0.00 0.00 0.00 0.00 0.00 0.00 0.00 0.00 0.00 0.00 0.00 0.00 0.00 0.00 0.00 0.00 0.00 0.00 0.00 0.00 0.00 0.00 0.00 0.00 0.00 0.00 0.00 0.00 0.00
0.00 0.00 0.00 0.00 0.00 0.00 0.00 0.00 0.00 0.00 0.00 0.00 0.00 0.00 0.00 0.00 0.00 0.00 0.00 0.00 0.00 0.00 0.00 0.00 0.00 0.00 0.00 0.00 0.00 0.00 0.00 0.00 0.00 0.00 0.00 0.00 0.00 0.00 0.00 0.00 0.00 0.00 0.00
0.00 0.00 0.00 0.00 0.00 0.00 0.00 0.00 0.00 0.00 0.00 0.00 0.00 0.00 0.00 0.00 0.00 0.00 0.00 0.00 0.00 0.00 0.00 0.00 0.00 0.00 0.00 0.00 0.00 0.00 0.00 0.00 0.00 0.00 0.00 0.00 0.00 0.00 0.00 0.00 0.00 0.00 0.00
0.00 0.00 0.00 0.00 0.00 0.00 0.00 0.00 0.00 0.00 0.00 0.00 0.00 0.00 0.00 0.00 0.00 0.00 0.00 0.00 0.00 0.00 0.00 0.00 0.00 0.00 0.00 0.00 0.00 0.00 0.00 0.00 0.00 0.00 0.00 0.00 0.00 0.00 0.00 0.00 0.00 0.00 0.00
0.00 0.00 0.00 0.00 0.00 0.00 0.00 0.00 0.00 0.00 0.00 0.00 0.00 0.00 0.00 0.00 0.00 0.00 0.00 0.00 0.00 0.00 0.00 0.00 0.00 0.00 0.00 0.00 0.00 0.00 0.00 0.00 0.00 0.00 0.00 0.00 0.00 0.00 0.00 0.00 0.00 0.00 0.00
0.00 0.00 0.00 0.00 0.00 0.00 0.00 0.00 0.00 0.00 0.00 0.00 0.00 0.00 0.00 0.00 0.00 0.00 0.00 0.00 0.00 0.00 0.00 0.00 0.00 0.00 0.00 0.00 0.00 0.00 0.00 0.00 0.00 0.00 0.00 0.00 0.00 0.00 0.00 0.00 0.00 0.00 0.00
0.01 0.01 0.00 0.00 0.00 0.00 0.00 0.00 0.00 0.00 0.00 0.00 0.00 0.00 0.00 0.00 0.00 0.00 0.00 0.00 0.00 0.00 0.00 0.00 0.00 0.00 0.00 0.00 0.00 0.00 0.00 0.00 0.00 0.00 0.00 0.00 0.00 0.00 0.00 0.00 0.00 0.00 0.00
0.03 0.01 0.00 0.00 0.00 0.00 0.00 0.00 0.00 0.00 0.00 0.00 0.00 0.00 0.00 0.00 0.00 0.00 0.00 0.00 0.00 0.00 0.00 0.00 0.00 0.00 0.00 0.00 0.00 0.00 0.00 0.00 0.00 0.00 0.00 0.00 0.00 0.00 0.00 0.00 0.00 0.00 0.00
MSLP
1017.25 1017.65 1018.08 1018.40 1018.67 1018.75 1018.85 1018.96 1018.95 1018.83 1018.85 1018.89 1019.03 1019.28 1019.57 1019.87 1020.00 1020.48 1020.52 1020.44 1020.49 1020.52 1020.49 1020.44 1020.42 1020.34 1020.25 1020.28 1020.40 1020.46 1020.57 1020.60 1020.82 1020.35 1020.10 1019.50 1019.18 1018.88 1018.48 1018.47 1018.22 1018.18 1018.19
1016.79 1017.41 1017.77 1018.10 1018.40 1018.59 1018.67 1018.77 1018.78 1018.83 1018.51 1018.76 1018.94 1019.21 1019.38 1019.65 1019.95 1020.11 1020.38 1020.29 1020.39 1020.42 1020.29 1020.16 1020.09 1020.22 1020.38 1020.46 1020.41 1020.45 1020.58 1020.48 1020.57 1020.59 1020.40 1019.97 1019.71 1019.44 1019.17 1018.99 1018.92 1018.39 1018.30
1016.52 1017.09 1017.55 1017.93 1018.26 1018.35 1018.34 1018.48 1018.54 1018.72 1018.57 1018.53 1018.71 1019.02 1019.28 1019.50 1019.69 1019.88 1020.07 1020.15 1020.23 1020.20 1020.16 1020.15 1019.94 1020.08 1020.24 1020.28 1020.29 1020.49 1020.63 1020.67 1020.68 1020.69 1020.62 1020.31 1020.13 1019.97 1019.80 1019.50 1019.59 1019.03 1018.56
1016.28 1016.85 1017.24 1017.60 1017.91 1018.18 1018.18 1018.29 1018.50 1018.47 1018.59 1018.52 1018.60 1018.82 1019.02 1019.17 1019.31 1019.51 1019.64 1019.79 1019.98 1020.11 1020.07 1019.99 1019.82 1019.97 1020.01 1020.31 1020.48 1020.55 1020.64 1020.76 1020.89 1020.96 1020.92 1020.78 1020.67 1020.25 1020.16 1020.24 1020.02 1019.66 1019.27
1016.45 1017.08 1017.59 1017.63 1017.70 1017.89 1018.09 1018.07 1018.11 1018.48 1018.55 1018.57 1018.72 1018.68 1018.96 1019.11 1019.28 1019.45 1019.54 1019.52 1019.71 1019.87 1019.98 1020.08 1020.07 1019.98 1019.83 1019.99 1020.33 1020.38 1020.52 1020.74 1020.81 1020.94 1021.17 1021.14 1021.03 1020.79 1020.78 1020.65 1020.44 1020.08 1019.75
1016.96 1017.04 1017.52 1017.51 1017.56 1017.88 1017.76 1017.97 1018.11 1018.31 1018.49 1018.51 1018.64 1018.85 1019.04 1019.09 1019.22 1019.32 1019.34 1019.39 1019.54 1019.79 1020.01 1020.15 1020.23 1020.05 1019.98 1019.99 1020.05 1020.08 1020.22 1020.48 1020.70 1020.99 1021.29 1021.39 1021.18 1021.08 1020.98 1020.91 1020.68 1020.40 1020.24
1017.01 1017.39 1017.34 1017.85 1017.63 1017.80 1017.80 1018.00 1018.28 1018.60 1018.81 1018.62 1018.52 1018.74 1019.16 1019.41 1019.44 1019.17 1019.04 1019.21 1019.36 1019.46 1019.69 1020.04 1020.40 1020.57 1020.33 1020.12 1020.18 1020.21 1020.32 1020.37 1020.56 1020.82 1021.09 1021.14 1021.07 1020.94 1021.03 1020.81 1020.72 1020.60 1020.61
1017.15 1017.49 1017.35 1017.58 1017.68 1017.78 1017.78 1018.05 1018.15 1018.60 1019.26 1019.46 1019.70 1019.50 1019.58 1019.76 1019.86 1019.49 1019.53 1019.16 1019.22 1019.50 1019.66 1020.13 1020.27 1020.50 1020.35 1020.50 1020.58 1020.69 1020.72 1020.63 1020.71 1020.72 1020.93 1021.02 1020.88 1020.65 1020.67 1020.61 1020.56 1020.64 1020.69
1017.66 1017.58 1017.26 1016.73 1017.32 1017.37 1017.89 1017.87 1018.06 1018.79 1019.45 1019.70 1019.79 1019.85 1020.18 1020.27 1019.98 1019.79 1019.80 1019.62 1019.83 1020.06 1020.37 1020.49 1020.59 1020.71 1020.61 1020.59 1020.71 1021.01 1021.16 1021.15 1020.88 1021.00 1021.10 1021.05 1020.79 1020.65 1020.43 1020.38 1020.83 1020.97 1021.33
1017.63 1017.74 1017.57 1017.36 1017.79 1017.85 1018.41 1018.73 1019.32 1019.67 1020.12 1020.55 1020.92 1021.06 1020.98 1020.55 1020.02 1020.00 1020.26 1020.53 1020.48 1020.91 1021.09 1020.88 1020.85 1021.12 1021.04 1021.02 1021.13 1021.29 1021.63 1021.91 1021.61 1021.56 1021.62 1021.47 1021.44 1021.37 1021.30 1021.40 1021.45 1021.66 1021.98
1017.82 1017.77 1017.79 1018.49 1018.82 1019.25 1019.78 1019.92 1019.98 1020.12 1020.46 1021.01 1021.29 1021.63 1021.52 1021.22 1019.94 1020.04 1020.32 1020.97 1021.49 1021.36 1021.55 1021.76 1021.71 1021.61 1021.70 1021.64 1021.54 1021.75 1022.04 1022.22 1022.37 1022.35 1022.46 1022.47 1022.39 1022.46 1022.52 1022.42 1022.38 1022.43 1022.96
1018.98 1018.88 1019.00 1019.11 1019.44 1019.80 1020.17 1020.54 1020.67 1020.74 1021.08 1021.51 1021.59 1021.91 1022.21 1021.64 1021.68 1021.33 1020.96 1021.48 1021.77 1021.79 1022.09 1022.20 1022.56 1022.30 1022.36 1022.26 1022.17 1022.40 1022.48 1022.59 1022.90 1023.26 1023.45 1023.81 1023.89 1023.87 1023.78 1023.67 1023.73 1023.79 1024.03
1020.19 1020.39 1020.33 1020.11 1020.24 1020.25 1020.30 1020.95 1021.29 1021.51 1021.58 1021.71 1021.87 1022.29 1022.44 1022.17 1022.17 1022.09 1022.00 1021.96 1022.24 1022.43 1022.66 1022.89 1022.85 1022.66 1022.64 1022.95 1023.15 1023.01 1023.04 1023.51 1023.92 1024.25 1024.70 1024.97 1024.95 1024.99 1024.69 1024.49 1024.49 1024.73 1024.93
1021.03 1021.20 1021.27 1021.16 1021.41 1021.29 1021.23 1021.41 1021.65 1021.91 1022.19 1022.34 1022.43 1022.55 1022.61 1022.63 1022.49 1022.67 1022.91 1022.90 1022.53 1022.66 1022.88 1023.34 1023.13 1023.13 1023.47 1023.68 1023.85 1024.06 1024.11 1024.43 1024.74 1025.18 1025.63 1025.81 1025.69 1025.56 1025.55 1025.68 1025.55 1025.25 1025.45
1020.93 1021.31 1021.63 1021.63 1021.87 1022.17 1022.40 1022.28 1022.65 1022.88 1022.84 1022.82 1022.75 1022.60 1022.86 1023.00 1023.16 1023.09 1023.15 1023.47 1023.53 1023.52 1023.46 1023.74 1024.01 1023.97 1024.65 1024.75 1025.08 1025.45 1025.31 1025.43 1025.52 1026.14 1026.47 1026.60 1026.63 1026.58 1026.62 1026.47 1026.44 1026.46 1026.77
1021.26 1021.49 1021.66 1022.05 1022.37 1022.54 1022.93 1022.98 1023.34 1023.40 1023.07 1022.88 1022.89 1022.90 1023.33 1023.27 1023.64 1023.70 1023.56 1023.54 1023.87 1024.29 1024.05 1024.44 1025.04 1025.24 1025.27 1025.55 1025.88 1026.32 1026.37 1026.25 1026.76 1027.31 1027.40 1027.53 1027.47 1027.37 1027.39 1027.33 1027.27 1027.30 1027.40
1021.76 1022.07 1022.26 1022.54 1022.79 1023.01 1023.23 1023.27 1023.34 1023.73 1023.68 1023.73 1023.43 1023.68 1023.55 1023.46 1023.95 1024.12 1023.78 1023.63 1023.88 1024.23 1024.74 1025.58 1025.64 1026.02 1026.43 1026.63 1026.66 1027.04 1027.41 1027.64 1028.12 1028.24 1028.08 1028.03 1028.11 1028.00 1028.04 1027.97 1027.98 1028.17 1028.00
1022.00 1022.08 1022.42 1022.69 1022.81 1023.02 1023.24 1023.36 1023.33 1023.91 1023.97 1024.08 1024.04 1023.84 1023.75 1023.54 1023.83 1024.30 1024.14 1023.62 1024.77 1025.27 1025.77 1026.00 1026.32 1026.71 1027.24 1027.79 1027.40 1027.87 1028.22 1028.46 1028.78 1028.63 1028.78 1028.77 1028.70 1028.85 1028.94 1029.09 1029.00 1028.86 1028.79
1022.22 1022.34 1022.48 1022.53 1022.64 1022.83 1022.96 1023.16 1023.63 1024.02 1024.27 1024.25 1024.30 1024.07 1024.07 1023.99 1024.19 1024.94 1024.64 1024.55 1025.44 1025.68 1026.42 1026.85 1027.17 1027.29 1027.78 1028.21 1027.93 1028.55 1028.82 1029.14 1029.14 1029.02 1029.31 1029.36 1029.50 1029.40 1029.37 1029.55 1029.52 1029.40 1029.29
1022.56 1022.64 1022.80 1022.93 1023.11 1023.20 1023.45 1023.76 1024.11 1024.34 1024.42 1024.34 1024.28 1024.26 1024.13 1024.58 1025.08 1024.95 1025.15 1025.55 1025.96 1026.46 1026.55 1027.35 1027.56 1027.90 1028.23 1028.30 1028.20 1028.69 1029.58 1029.61 1029.63 1029.53 1029.66 1030.03 1029.85 1029.73 1029.76 1029.71 1029.87 1029.85 1029.69
1022.62 1022.76 1022.82 1022.96 1023.06 1023.20 1023.41 1023.60 1023.84 1024.09 1024.35 1024.59 1024.73 1024.35 1024.21 1024.12 1024.48 1025.07 1025.49 1025.85 1026.23 1026.47 1026.39 1027.28 1027.62 1027.77 1028.17 1028.43 1028.71 1029.21 1029.48 1029.53 1029.63 1029.86 1029.93 1030.02 1029.99 1030.01 1030.03 1029.89 1029.79 1029.59 1029.70
1022.20 1022.44 1022.66 1022.86 1023.05 1023.20 1023.32 1023.36 1023.56 1023.69 1024.03 1024.13 1024.14 1024.19 1024.40 1024.41 1024.79 1025.11 1025.24 1025.56 1025.86 1025.75 1026.33 1026.88 1027.28 1027.18 1027.66 1028.06 1028.29 1028.66 1028.91 1029.18 1029.55 1029.81 1030.02 1030.20 1030.09 1030.11 1030.00 1029.99 1029.98 1029.88 1029.75
1021.92 1022.23 1022.46 1022.60 1022.71 1022.80 1023.01 1023.17 1023.35 1023.43 1023.56 1023.62 1023.83 1024.15 1024.35 1024.57 1024.87 1025.16 1025.19 1025.45 1025.68 1025.80 1026.26 1026.55 1026.88 1027.41 1027.57 1027.60 1027.76 1028.07 1028.50 1028.91 1029.13 1029.47 1029.76 1029.92 1029.97 1030.14 1030.17 1030.06 1030.00 1029.98 1029.75
1021.48 1021.74 1021.99 1022.08 1022.20 1022.44 1022.61 1022.78 1022.89 1022.89 1022.99 1023.13 1023.32 1023.56 1023.87 1024.16 1024.49 1024.85 1025.01 1025.23 1025.56 1025.80 1026.08 1026.33 1026.52 1026.89 1027.28 1027.57 1027.66 1027.83 1028.19 1028.32 1028.53 1028.88 1029.16 1029.70 1029.87 1029.91 1030.01 1029.93 1029.80 1029.74 1029.60
1020.82 1021.19 1021.47 1021.63 1021.79 1021.95 1022.26 1022.37 1022.62 1022.43 1022.48 1022.82 1022.97 1023.17 1023.47 1023.80 1024.13 1024.39 1024.68 1024.85 1025.11 1025.50 1025.71 1025.94 1026.12 1026.33 1026.52 1026.72 1027.14 1027.40 1027.67 1027.96 1028.18 1028.31 1028.80 1029.09 1029.34 1029.61 1029.87 1029.82 1029.81 1029.69 1029.47
1020.60 1020.81 1020.96 1021.17 1021.28 1021.29 1021.87 1021.99 1022.33 1022.24 1022.46 1022.42 1022.58 1022.75 1023.03 1023.42 1023.46 1023.67 1023.97 1024.28 1024.69 1024.91 1025.09 1025.35 1025.49 1025.54 1025.75 1026.05 1026.45 1026.87 1027.27 1027.52 1027.74 1028.06 1028.46 1028.84 1029.15 1029.33 1029.48 1029.43 1029.40 1029.25 1028.94
Thickness
5765 5764 5763 5762 5762 5762 5763 5765 5766 5770 5770 5771 5771 5770 5768 5766 5766 5763 5763 5765 5765 5766 5769 5771 5772 5775 5775 5774 5772 5770 5767 5766 5758 5763 5766 5769 5771 5774 5776 5775 5775 5775 5773
5767 5763 5763 5762 5763 5763 5762 5763 5765 5766 5770 5770 5770 5769 5770 5767 5764 5762 5761 5764 5763 5763 5766 5769 5771 5773 5771 5771 5770 5768 5767 5768 5763 5760 5762 5765 5766 5768 5768 5769 5769 5772 5773
5765 5761 5760 5758 5759 5760 5763 5764 5764 5763 5766 5768 5769 5769 5767 5766 5764 5764 5762 5762 5761 5763 5764 5765 5768 5768 5767 5766 5766 5765 5765 5765 5764 5760 5759 5763 5764 5764 5764 5761 5763 5766 5769
5763 5759 5758 5758 5756 5756 5759 5760 5760 5762 5762 5766 5767 5766 5767 5766 5766 5765 5764 5763 5762 5762 5763 5765 5766 5765 5766 5764 5763 5763 5762 5760 5760 5757 5756 5756 5757 5760 5759 5755 5756 5760 5762
5754 5752 5749 5753 5755 5753 5755 5759 5760 5758 5758 5760 5761 5765 5764 5763 5762 5761 5762 5762 5762 5761 5761 5760 5761 5763 5766 5766 5763 5761 5760 5758 5756 5754 5751 5751 5751 5752 5749 5750 5751 5754 5757
5745 5746 5744 5745 5748 5748 5750 5751 5754 5754 5753 5756 5757 5757 5756 5758 5757 5758 5759 5759 5759 5757 5755 5755 5755 5758 5760 5761 5761 5760 5760 5756 5753 5751 5748 5746 5746 5747 5747 5746 5746 5748 5744
5740 5738 5739 5735 5738 5740 5744 5744 5743 5743 5744 5748 5752 5752 5750 5749 5750 5754 5755 5756 5755 5755 5753 5751 5749 5748 5753 5755 5756 5755 5753 5753 5752 5749 5745 5746 5746 5746 5744 5743 5743 5743 5740
5731 5731 5733 5731 5731 5732 5733 5735 5737 5736 5732 5735 5734 5739 5741 5740 5740 5745 5746 5752 5752 5749 5748 5745 5743 5743 5747 5747 5747 5746 5745 5746 5745 5744 5743 5742 5743 5744 5742 5742 5741 5740 5739
5721 5723 5725 5732 5725 5729 5727 5730 5732 5727 5723 5725 5723 5726 5728 5728 5731 5735 5736 5740 5739 5737 5734 5734 5735 5735 5739 5742 5739 5736 5735 5735 5736 5735 5734 5734 5735 5737 5738 5738 5732 5730 5727
5715 5711 5717 5721 5718 5718 5717 5717 5716 5716 5714 5713 5712 5714 5715 5719 5723 5725 5726 5724 5725 5722 5721 5724 5725 5726 5728 5727 5726 5725 5721 5719 5722 5722 5722 5723 5722 5722 5723 5723 5722 5718 5716
5707 5710 5711 5706 5705 5704 5701 5703 5704 5705 5703 5700 5700 5700 5702 5706 5713 5717 5717 5712 5709 5711 5710 5710 5711 5712 5713 5713 5713 5712 5710 5709 5708 5708 5708 5708 5707 5705 5704 5706 5705 5704 5698
5694 5696 5697 5699 5696 5696 5694 5694 5696 5698 5696 5693 5695 5693 5691 5697 5698 5702 5703 5700 5698 5699 5697 5697 5696 5699 5697 5696 5696 5694 5694 5694 5694 5693 5691 5687 5686 5685 5685 5686 5684 5681 5679
5675 5675 5678 5683 5685 5687 5688 5684 5683 5683 5686 5687 5687 5684 5684 5687 5686 5687 5690 5690 5688 5685 5684 5683 5684 5686 5684 5680 5679 5679 5679 5677 5675 5672 5668 5665 5665 5665 5665 5666 5667 5663 5661
5659 5658 5660 5664 5665 5668 5671 5671 5672 5673 5673 5674 5674 5673 5674 5675 5677 5675 5671 5672 5675 5674 5671 5668 5671 5669 5666 5665 5663 5662 5661 5658 5655 5652 5648 5647 5647 5647 5646 5644 5644 5648 5645
5652 5651 5649 5652 5652 5652 5652 5656 5655 5654 5656 5661 5660 5661 5660 5660 5660 5660 5661 5659 5657 5657 5658 5655 5648 5650 5646 5646 5642 5639 5639 5639 5637 5632 5629 5628 5627 5627 5627 5628 5628 5626 5623
5638 5640 5640 5638 5637 5636 5636 5640 5637 5638 5642 5645 5645 5645 5643 5645 5642 5641 5644 5645 5642 5639 5640 5637 5632 5633 5633 5628 5625 5620 5619 5621 5614 5611 5609 5608 5608 5610 5610 5611 5611 5610 5608
5622 5622 5623 5621 5621 5620 5621 5621 5624 5622 5623 5624 5628 5627 5629 5630 5625 5623 5627 5629 5627 5624 5621 5615 5614 5612 5610 5606 5606 5604 5601 5598 5592 5593 5593 5593 5593 5593 5593 5592 5592 5590 5591
5608 5608 5606 5605 5605 5606 5606 5607 5607 5607 5607 5607 5608 5611 5612 5615 5613 5608 5608 5611 5603 5600 5597 5595 5595 5593 5589 5583 5586 5584 5582 5580 5576 5577 5576 5576 5575 5574 5572 5570 5570 5570 5569
5597 5597 5596 5597 5596 5595 5595 5594 5592 5590 5588 5589 5590 5594 5594 5596 5595 5588 5589 5591 5584 5581 5576 5573 5572 5572 5569 5566 5567 5563 5562 5560 5561 5562 5559 5558 5556 5556 5555 5552 5551 5551 5550
5580 5581 5580 5580 5580 5580 5579 5576 5574 5573 5572 5574 5576 5577 5578 5576 5572 5571 5570 5567 5563 5559 5560 5553 5552 5551 5550 5551 5552 5548 5542 5541 5541 5541 5540 5536 5537 5537 5536 5535 5531 5529 5528
5568 5567 5568 5566 5567 5567 5566 5565 5562 5560 5558 5557 5557 5560 5562 5563 5561 5555 5551 5548 5546 5546 5548 5540 5539 5537 5534 5533 5532 5528 5526 5526 5525 5523 5521 5520 5519 5517 5515 5514 5514 5513 5509
5562 5559 5558 5557 5555 5554 5554 5553 5552 5552 5549 5548 5549 5549 5547 5547 5543 5539 5537 5534 5532 5533 5530 5526 5524 5524 5521 5519 5516 5513 5513 5511 5507 5505 5502 5500 5499 5498 5497 5495 5493 5491 5489
5553 5550 5548 5547 5546 5547 5545 5544 5542 5542 5540 5540 5538 5536 5534 5532 5529 5526 5524 5522 5519 5519 5516 5513 5511 5506 5506 5507 5505 5502 5498 5494 5492 5489 5486 5485 5483 5480 5478 5477 5475 5471 5470
5544 5543 5540 5540 5539 5537 5535 5535 5534 5534 5533 5532 5531 5529 5526 5522 5520 5517 5514 5510 5507 5505 5503 5500 5497 5495 5492 5490 5489 5488 5484 5483 5481 5478 5476 5472 5468 5466 5463 5460 5458 5456 5453
5539 5537 5534 5532 5531 5531 5529 5527 5524 5525 5525 5522 5520 5518 5515 5513 5510 5507 5503 5501 5498 5495 5493 5489 5487 5485 5483 5481 5478 5476 5474 5472 5468 5466 5463 5460 5457 5453 5448 5445 5441 5438 5436
5528 5527 5526 5523 5522 5523 5519 5518 5515 5515 5514 5514 5512 5510 5507 5503 5502 5500 5497 5494 5488 5486 5484 5482 5480 5477 5474 5472 5468 5464 5463 5461 5458 5454 5451 5447 5443 5440 5435 5430 5427 5424 5421